Regional Weather Roundup
Issued by NWS

Home | Current Version | Previous Version | Graphics & Text | Print | Product List | Glossary On
Versions: 1 2 3 4 5 6 7 8 9 10 11 12 13 14 15 16 17 18 19 20 21 22 23 24 25 26 27 28 29 30 31 32 33 34 35 36 37 38 39 40 41 42 43 44 45 46 47 48 49 50
000
ASUS43 KTOP 301559
RWRKS

WEATHER ROUNDUP FOR KANSAS
NATIONAL WEATHER SERVICE GOODLAND KS
1100 AM CDT TUE SEP 30 2014

NOTE:  "FAIR" INDICATES FEW OR NO CLOUDS BELOW 12,000 FEET WITH NO
SIGNIFICANT WEATHER AND/OR OBSTRUCTIONS TO VISIBILITY.

KSZ001>006-013>018-027>032-041>047-301700-
NORTHWEST KANSAS

CITY           SKY/WX    TMP DP  RH WIND       PRES   REMARKS
GOODLAND       SUNNY     62  48  60 S7        29.85S
HAYS           CLOUDY    66  57  72 S8        29.83S
HILL CITY      SUNNY     70  49  47 SE8       29.81F
RUSSELL        CLOUDY    65  63  93 S12       29.82S
$$

KSZ061>065-074>080-084>089-301700-
SOUTHWEST KANSAS

CITY           SKY/WX    TMP DP  RH WIND       PRES   REMARKS
DODGE CITY     PTSUNNY   72  57  59 S16       29.82F
GARDEN CITY    PTSUNNY   67  59  75 SW5       29.82F
GREAT BEND     CLOUDY    66  59  77 S23       29.82S
LIBERAL        SUNNY     73  57  56 SW16      29.84S
$$

KSZ066>073-081>083-090>101-301700-
SOUTHEAST KANSAS

CITY           SKY/WX    TMP DP  RH WIND       PRES   REMARKS
CHANUTE        SUNNY     77  63  61 S14       29.93F
COFFEYVILLE    SUNNY     77  63  61 S10       29.92F
HUTCHINSON     CLOUDY    73  60  63 S16G24    29.86F
MEDICINE LODGE   N/A     74  62  66 S16G24    29.84F
NEWTON         CLOUDY    73  57  56 S17       29.90F
PARSONS        SUNNY     78  64  61 S9        29.94F
WICHITA INTL   PTSUNNY   77  61  57 S17       29.87F
WICHITA JABRA  PTSUNNY   77  61  57 S16G23    29.88S
WICHITA MCCONL MOSUNNY   78  61  56 S21       29.88F
WINFIELD       SUNNY     79  62  56 S15       29.90F
$$

KSZ007>012-019>026-033>040-048>060-102>105-301700-
NORTHEAST KANSAS

CITY           SKY/WX    TMP DP  RH WIND       PRES   REMARKS
CONCORDIA      LGT RAIN  63  62  97 SE10      29.85F
EMPORIA        SUNNY     75  62  64 S18       29.89F
LAWRENCE       MOSUNNY   77  61  57 S10       29.91F
MANHATTAN      PTSUNNY   79  61  53 S14G23    29.86F
OLATHE IND     MOSUNNY   76  61  59 S10       29.93F
OLATHE EXE     MOSUNNY   76  61  59 SW10      29.92F
SALINA         RAIN      67  63  87 SE8       29.86F FOG
TOPEKA BILLARD SUNNY     80  63  55 S10       29.89F
TOPEKA FORBES  SUNNY     80  62  54 S12       29.89F
$$


USA.gov is the U.S. government's official web portal to all federal, state and local government web resources and services.